owner,sensor,date,latitude,longitude,vertical_datum,wind_speed,wind_to_direction,wind_speed_of_gust,qcFlag 
ADCP,ioos:station:wmo:42887:1,2016-05-01T00:00:00Z,28.1910,-88.4960,48.2,6.3,118.0,99.0,'11111222,11111222,11144222' 
ADCP,ioos:station:wmo:42887:1,2016-05-01T00:20:00Z,28.1910,-88.4960,48.2,5.9,115.0,99.0,'11111222,11111222,11144222' 
ADCP,ioos:station:wmo:42887:1,2016-05-01T00:40:00Z,28.1910,-88.4960,48.2,5.5,109.0,99.0,'11111222,11111222,11144222' 
ADCP,ioos:station:wmo:42887:1,2016-05-01T01:00:00Z,28.1910,-88.4960,48.2,4.3,110.0,99.0,'11111222,11111222,11144222' 
ADCP,ioos:station:wmo:42887:1,2016-05-01T01:20:00Z,28.1910,-88.4960,48.2,2.1,84.0,99.0,'11111222,11111222,11144222' 
ADCP,ioos:station:wmo:42887:1,2016-05-01T01:40:00Z,28.1910,-88.4960,48.2,2.1,66.0,99.0,'11111222,11111222,11144222' 
ADCP,ioos:station:wmo:42887:1,2016-05-01T02:00:00Z,28.1910,-88.4960,48.2,4.2,88.0,99.0,'11111222,11111222,11144222' 
ADCP,ioos:station:wmo:42887:1,2016-05-01T02:20:00Z,28.1910,-88.4960,48.2,4.8,93.0,99.0,'11111222,11111222,11144222' 
ADCP,ioos:station:wmo:42887:1,2016-05-01T02:40:00Z,28.1910,-88.4960,48.2,4.4,87.0,99.0,'11111222,11111222,11144222' 
ADCP,ioos:station:wmo:42887:1,2016-05-01T03:00:00Z,28.1910,-88.4960,48.2,5.3,89.0,99.0,'11111222,11111222,11144222' 
ADCP,ioos:station:wmo:42887:1,2016-05-01T03:20:00Z,28.1910,-88.4960,48.2,6.9,99.0,99.0,'11111222,11111222,11144222' 
ADCP,ioos:station:wmo:42887:1,2016-05-01T03:40:00Z,28.1910,-88.4960,48.2,7.5,100.0,99.0,'11111222,11111222,11144222' 
ADCP,ioos:station:wmo:42887:1,2016-05-01T04:00:00Z,28.1910,-88.4960,48.2,6.6,99.0,99.0,'11111222,11111222,11144222' 
ADCP,ioos:station:wmo:42887:1,2016-05-01T04:20:00Z,28.1910,-88.4960,48.2,4.8,95.0,99.0,'11111222,11111222,11144222' 
ADCP,ioos:station:wmo:42887:1,2016-05-01T04:40:00Z,28.1910,-88.4960,48.2,8.5,118.0,99.0,'11111222,11111222,11144222' 
ADCP,ioos:station:wmo:42887:1,2016-05-01T05:00:00Z,28.1910,-88.4960,48.2,8.6,126.0,99.0,'11111222,11111222,11144222' 
ADCP,ioos:station:wmo:42887:1,2016-05-01T05:20:00Z,28.1910,-88.4960,48.2,9.4,128.0,99.0,'11111222,11111222,11144222' 
ADCP,ioos:station:wmo:42887:1,2016-05-01T05:40:00Z,28.1910,-88.4960,48.2,8.6,131.0,99.0,'11111222,11111222,11144222' 
ADCP,ioos:station:wmo:42887:1,2016-05-01T06:00:00Z,28.1910,-88.4960,48.2,7.2,131.0,99.0,'11111222,11111222,11144222' 
ADCP,ioos:station:wmo:42887:1,2016-05-01T06:20:00Z,28.1910,-88.4960,48.2,8.2,132.0,99.0,'11111222,11111222,11144222' 
ADCP,ioos:station:wmo:42887:1,2016-05-01T06:40:00Z,28.1910,-88.4960,48.2,9.6,133.0,99.0,'11111222,11111222,11144222' 
ADCP,ioos:station:wmo:42887:1,2016-05-01T07:00:00Z,28.1910,-88.4960,48.2,9.0,138.0,99.0,'11111222,11111222,11144222' 
ADCP,ioos:station:wmo:42887:1,2016-05-01T07:20:00Z,28.1910,-88.4960,48.2,9.9,142.0,99.0,'11111222,11111222,11144222' 
ADCP,ioos:station:wmo:42887:1,2016-05-01T07:40:00Z,28.1910,-88.4960,48.2,8.4,133.0,99.0,'11111222,11111222,11144222' 
ADCP,ioos:station:wmo:42887:1,2016-05-01T08:00:00Z,28.1910,-88.4960,48.2,9.3,141.0,99.0,'11111222,11111222,11144222' 
ADCP,ioos:station:wmo:42887:1,2016-05-01T08:20:00Z,28.1910,-88.4960,48.2,7.7,143.0,99.0,'11111222,11111222,11144222' 
ADCP,ioos:station:wmo:42887:1,2016-05-01T08:40:00Z,28.1910,-88.4960,48.2,6.5,141.0,99.0,'11111222,11111222,11144222' 
ADCP,ioos:station:wmo:42887:1,2016-05-01T09:00:00Z,28.1910,-88.4960,48.2,7.8,141.0,99.0,'11111222,11111222,11144222' 
ADCP,ioos:station:wmo:42887:1,2016-05-01T09:20:00Z,28.1910,-88.4960,48.2,8.6,146.0,99.0,'11111222,11111222,11144222' 
ADCP,ioos:station:wmo:42887:1,2016-05-01T09:40:00Z,28.1910,-88.4960,48.2,7.4,144.0,99.0,'11111222,11111222,11144222' 
ADCP,ioos:station:wmo:42887:1,2016-05-01T10:00:00Z,28.1910,-88.4960,48.2,6.4,157.0,99.0,'11111222,11111222,11144222' 
ADCP,ioos:station:wmo:42887:1,2016-05-01T10:20:00Z,28.1910,-88.4960,48.2,6.1,145.0,99.0,'11111222,11111222,11144222' 
ADCP,ioos:station:wmo:42887:1,2016-05-01T10:40:00Z,28.1910,-88.4960,48.2,7.1,142.0,99.0,'11111222,11111222,11144222' 
ADCP,ioos:station:wmo:42887:1,2016-05-01T11:00:00Z,28.1910,-88.4960,48.2,7.3,147.0,99.0,'11111222,11111222,11144222' 
ADCP,ioos:station:wmo:42887:1,2016-05-01T11:20:00Z,28.1910,-88.4960,48.2,7.5,148.0,99.0,'11111222,11111222,11144222' 
ADCP,ioos:station:wmo:42887:1,2016-05-01T11:40:00Z,28.1910,-88.4960,48.2,6.8,143.0,99.0,'11111222,11111222,11144222' 
ADCP,ioos:station:wmo:42887:1,2016-05-01T12:00:00Z,28.1910,-88.4960,48.2,7.1,143.0,99.0,'11111222,11111222,11144222' 
ADCP,ioos:station:wmo:42887:1,2016-05-01T12:20:00Z,28.1910,-88.4960,48.2,6.3,145.0,99.0,'11111222,11111222,11144222' 
ADCP,ioos:station:wmo:42887:1,2016-05-01T12:40:00Z,28.1910,-88.4960,48.2,6.7,142.0,99.0,'11111222,11111222,11144222' 
ADCP,ioos:station:wmo:42887:1,2016-05-01T13:00:00Z,28.1910,-88.4960,48.2,7.5,139.0,99.0,'11111222,11111222,11144222' 
ADCP,ioos:station:wmo:42887:1,2016-05-01T13:20:00Z,28.1910,-88.4960,48.2,7.1,139.0,99.0,'11111222,11111222,11144222' 
ADCP,ioos:station:wmo:42887:1,2016-05-01T13:40:00Z,28.1910,-88.4960,48.2,6.6,138.0,99.0,'11111222,11111222,11144222' 
ADCP,ioos:station:wmo:42887:1,2016-05-01T14:00:00Z,28.1910,-88.4960,48.2,6.3,140.0,99.0,'11111222,11111222,11144222' 
ADCP,ioos:station:wmo:42887:1,2016-05-01T14:20:00Z,28.1910,-88.4960,48.2,6.8,136.0,99.0,'11111222,11111222,11144222' 
ADCP,ioos:station:wmo:42887:1,2016-05-01T14:40:00Z,28.1910,-88.4960,48.2,7.1,139.0,99.0,'11111222,11111222,11144222' 
ADCP,ioos:station:wmo:42887:1,2016-05-01T15:00:00Z,28.1910,-88.4960,48.2,6.7,131.0,99.0,'11111222,11111222,11144222' 
ADCP,ioos:station:wmo:42887:1,2016-05-01T15:20:00Z,28.1910,-88.4960,48.2,6.0,134.0,99.0,'11111222,11111222,11144222' 
ADCP,ioos:station:wmo:42887:1,2016-05-01T15:40:00Z,28.1910,-88.4960,48.2,6.7,135.0,99.0,'11111222,11111222,11144222' 
ADCP,ioos:station:wmo:42887:1,2016-05-01T16:00:00Z,28.1910,-88.4960,48.2,6.3,139.0,99.0,'11111222,11111222,11144222' 
ADCP,ioos:station:wmo:42887:1,2016-05-01T16:20:00Z,28.1910,-88.4960,48.2,7.0,140.0,99.0,'11111222,11111222,11144222' 
ADCP,ioos:station:wmo:42887:1,2016-05-01T16:40:00Z,28.1910,-88.4960,48.2,7.2,143.0,99.0,'11111222,11111222,11144222' 
ADCP,ioos:station:wmo:42887:1,2016-05-01T17:00:00Z,28.1910,-88.4960,48.2,7.1,138.0,99.0,'11111222,11111222,11144222' 
ADCP,ioos:station:wmo:42887:1,2016-05-01T17:20:00Z,28.1910,-88.4960,48.2,5.9,139.0,99.0,'11111222,11111222,11144222' 
ADCP,ioos:station:wmo:42887:1,2016-05-01T17:40:00Z,28.1910,-88.4960,48.2,6.7,137.0,99.0,'11111222,11111222,11144222' 
ADCP,ioos:station:wmo:42887:1,2016-05-01T18:00:00Z,28.1910,-88.4960,48.2,6.2,133.0,99.0,'11111222,11111222,11144222' 
ADCP,ioos:station:wmo:42887:1,2016-05-01T18:20:00Z,28.1910,-88.4960,48.2,6.6,132.0,99.0,'11111222,11111222,11144222' 
ADCP,ioos:station:wmo:42887:1,2016-05-01T18:40:00Z,28.1910,-88.4960,48.2,5.6,137.0,99.0,'11111222,11111222,11144222' 
ADCP,ioos:station:wmo:42887:1,2016-05-01T19:00:00Z,28.1910,-88.4960,48.2,6.0,134.0,99.0,'11111222,11111222,11144222' 
ADCP,ioos:station:wmo:42887:1,2016-05-01T19:20:00Z,28.1910,-88.4960,48.2,5.6,132.0,99.0,'11111222,11111222,11144222' 
ADCP,ioos:station:wmo:42887:1,2016-05-01T19:40:00Z,28.1910,-88.4960,48.2,5.5,111.0,99.0,'11111222,11111222,11144222' 
ADCP,ioos:station:wmo:42887:1,2016-05-01T20:00:00Z,28.1910,-88.4960,48.2,5.5,121.0,99.0,'11111222,11111222,11144222' 
ADCP,ioos:station:wmo:42887:1,2016-05-01T20:20:00Z,28.1910,-88.4960,48.2,5.5,104.0,99.0,'11111222,11111222,11144222' 
ADCP,ioos:station:wmo:42887:1,2016-05-01T20:40:00Z,28.1910,-88.4960,48.2,5.6,102.0,99.0,'11111222,11111222,11144222' 
ADCP,ioos:station:wmo:42887:1,2016-05-01T21:00:00Z,28.1910,-88.4960,48.2,6.0,95.0,99.0,'11111222,11111222,11144222' 
ADCP,ioos:station:wmo:42887:1,2016-05-01T21:20:00Z,28.1910,-88.4960,48.2,5.9,89.0,99.0,'11111222,11111222,11144222' 
ADCP,ioos:station:wmo:42887:1,2016-05-01T21:40:00Z,28.1910,-88.4960,48.2,6.0,89.0,99.0,'11111222,11111222,11144222' 
ADCP,ioos:station:wmo:42887:1,2016-05-01T22:00:00Z,28.1910,-88.4960,48.2,5.8,90.0,99.0,'11111222,11111222,11144222' 
ADCP,ioos:station:wmo:42887:1,2016-05-01T22:20:00Z,28.1910,-88.4960,48.2,5.8,90.0,99.0,'11111222,11111222,11144222' 
ADCP,ioos:station:wmo:42887:1,2016-05-01T22:40:00Z,28.1910,-88.4960,48.2,5.6,82.0,99.0,'11111222,11111222,11144222' 
ADCP,ioos:station:wmo:42887:1,2016-05-01T23:00:00Z,28.1910,-88.4960,48.2,5.5,80.0,99.0,'11111222,11111222,11144222' 
ADCP,ioos:station:wmo:42887:1,2016-05-01T23:20:00Z,28.1910,-88.4960,48.2,6.0,80.0,99.0,'11111222,11111222,11144222' 
ADCP,ioos:station:wmo:42887:1,2016-05-01T23:40:00Z,28.1910,-88.4960,48.2,5.8,79.0,99.0,'11111222,11111222,11144222' 
ADCP,ioos:station:wmo:42887:1,2016-05-02T00:00:00Z,28.1910,-88.4960,48.2,6.4,80.0,99.0,'11111222,11111222,11144222' 
ADCP,ioos:station:wmo:42887:1,2016-05-02T00:20:00Z,28.1910,-88.4960,48.2,5.8,75.0,99.0,'11111222,11111222,11144222' 
ADCP,ioos:station:wmo:42887:1,2016-05-02T00:40:00Z,28.1910,-88.4960,48.2,6.0,72.0,99.0,'11111222,11111222,11144222' 
ADCP,ioos:station:wmo:42887:1,2016-05-02T01:00:00Z,28.1910,-88.4960,48.2,6.5,76.0,99.0,'11111222,11111222,11144222' 
ADCP,ioos:station:wmo:42887:1,2016-05-02T01:20:00Z,28.1910,-88.4960,48.2,6.3,76.0,99.0,'11111222,11111222,11144222' 
ADCP,ioos:station:wmo:42887:1,2016-05-02T01:40:00Z,28.1910,-88.4960,48.2,4.4,76.0,99.0,'11111222,11111222,11144222' 
ADCP,ioos:station:wmo:42887:1,2016-05-02T02:00:00Z,28.1910,-88.4960,48.2,6.5,75.0,99.0,'11111222,11111222,11144222' 
ADCP,ioos:station:wmo:42887:1,2016-05-02T02:20:00Z,28.1910,-88.4960,48.2,6.7,79.0,99.0,'11111222,11111222,11144222' 
ADCP,ioos:station:wmo:42887:1,2016-05-02T02:40:00Z,28.1910,-88.4960,48.2,6.4,79.0,99.0,'11111222,11111222,11144222' 
ADCP,ioos:station:wmo:42887:1,2016-05-02T03:00:00Z,28.1910,-88.4960,48.2,6.7,78.0,99.0,'11111222,11111222,11144222' 
ADCP,ioos:station:wmo:42887:1,2016-05-02T03:20:00Z,28.1910,-88.4960,48.2,6.9,75.0,99.0,'11111222,11111222,11144222' 
ADCP,ioos:station:wmo:42887:1,2016-05-02T03:40:00Z,28.1910,-88.4960,48.2,6.0,81.0,99.0,'11111222,11111222,11144222' 
ADCP,ioos:station:wmo:42887:1,2016-05-02T04:00:00Z,28.1910,-88.4960,48.2,6.8,85.0,99.0,'11111222,11111222,11144222' 
ADCP,ioos:station:wmo:42887:1,2016-05-02T04:20:00Z,28.1910,-88.4960,48.2,6.4,83.0,99.0,'11111222,11111222,11144222' 
ADCP,ioos:station:wmo:42887:1,2016-05-02T04:40:00Z,28.1910,-88.4960,48.2,6.4,83.0,99.0,'11111222,11111222,11144222' 
ADCP,ioos:station:wmo:42887:1,2016-05-02T05:00:00Z,28.1910,-88.4960,48.2,6.7,85.0,99.0,'11111222,11111222,11144222' 
ADCP,ioos:station:wmo:42887:1,2016-05-02T05:20:00Z,28.1910,-88.4960,48.2,6.0,90.0,99.0,'11111222,11111222,11144222' 
ADCP,ioos:station:wmo:42887:1,2016-05-02T05:40:00Z,28.1910,-88.4960,48.2,5.5,93.0,99.0,'11111222,11111222,11144222' 
ADCP,ioos:station:wmo:42887:1,2016-05-02T06:00:00Z,28.1910,-88.4960,48.2,4.7,103.0,99.0,'11111222,11111222,11144222' 
ADCP,ioos:station:wmo:42887:1,2016-05-02T06:20:00Z,28.1910,-88.4960,48.2,5.1,116.0,99.0,'11111222,11111222,11144222' 
ADCP,ioos:station:wmo:42887:1,2016-05-02T06:40:00Z,28.1910,-88.4960,48.2,4.9,120.0,99.0,'11111222,11111222,11144222' 
ADCP,ioos:station:wmo:42887:1,2016-05-02T07:00:00Z,28.1910,-88.4960,48.2,4.4,126.0,99.0,'11111222,11111222,11144222' 
ADCP,ioos:station:wmo:42887:1,2016-05-02T07:20:00Z,28.1910,-88.4960,48.2,5.1,135.0,99.0,'11111222,11111222,11144222' 
ADCP,ioos:station:wmo:42887:1,2016-05-02T07:40:00Z,28.1910,-88.4960,48.2,5.7,134.0,99.0,'11111222,11111222,11144222' 
ADCP,ioos:station:wmo:42887:1,2016-05-02T08:00:00Z,28.1910,-88.4960,48.2,5.2,136.0,99.0,'11111222,11111222,11144222' 
ADCP,ioos:station:wmo:42887:1,2016-05-02T08:20:00Z,28.1910,-88.4960,48.2,6.7,139.0,99.0,'11111222,11111222,11144222' 
ADCP,ioos:station:wmo:42887:1,2016-05-02T08:40:00Z,28.1910,-88.4960,48.2,6.8,144.0,99.0,'11111222,11111222,11144222' 
ADCP,ioos:station:wmo:42887:1,2016-05-02T09:00:00Z,28.1910,-88.4960,48.2,7.1,150.0,99.0,'11111222,11111222,11144222' 
ADCP,ioos:station:wmo:42887:1,2016-05-02T09:20:00Z,28.1910,-88.4960,48.2,6.2,156.0,99.0,'11111222,11111222,11144222' 
ADCP,ioos:station:wmo:42887:1,2016-05-02T09:40:00Z,28.1910,-88.4960,48.2,5.8,155.0,99.0,'11111222,11111222,11144222' 
ADCP,ioos:station:wmo:42887:1,2016-05-02T10:00:00Z,28.1910,-88.4960,48.2,7.1,150.0,99.0,'11111222,11111222,11144222' 
ADCP,ioos:station:wmo:42887:1,2016-05-02T10:20:00Z,28.1910,-88.4960,48.2,6.7,146.0,99.0,'11111222,11111222,11144222' 
ADCP,ioos:station:wmo:42887:1,2016-05-02T10:40:00Z,28.1910,-88.4960,48.2,8.0,152.0,99.0,'11111222,11111222,11144222' 
ADCP,ioos:station:wmo:42887:1,2016-05-02T11:00:00Z,28.1910,-88.4960,48.2,8.8,146.0,99.0,'11111222,11111222,11144222' 
ADCP,ioos:station:wmo:42887:1,2016-05-02T11:20:00Z,28.1910,-88.4960,48.2,7.2,147.0,99.0,'11111222,11111222,11144222' 
ADCP,ioos:station:wmo:42887:1,2016-05-02T11:40:00Z,28.1910,-88.4960,48.2,8.7,153.0,99.0,'11111222,11111222,11144222' 
ADCP,ioos:station:wmo:42887:1,2016-05-02T12:00:00Z,28.1910,-88.4960,48.2,8.6,149.0,99.0,'11111222,11111222,11144222' 
ADCP,ioos:station:wmo:42887:1,2016-05-02T12:20:00Z,28.1910,-88.4960,48.2,9.0,153.0,99.0,'11111222,11111222,11144222' 
ADCP,ioos:station:wmo:42887:1,2016-05-02T12:40:00Z,28.1910,-88.4960,48.2,9.3,153.0,99.0,'11111222,11111222,11144222' 
ADCP,ioos:station:wmo:42887:1,2016-05-02T13:00:00Z,28.1910,-88.4960,48.2,8.5,154.0,99.0,'11111222,11111222,11144222' 
ADCP,ioos:station:wmo:42887:1,2016-05-02T13:20:00Z,28.1910,-88.4960,48.2,7.2,149.0,99.0,'11111222,11111222,11144222' 
ADCP,ioos:station:wmo:42887:1,2016-05-02T13:40:00Z,28.1910,-88.4960,48.2,7.2,152.0,99.0,'11111222,11111222,11144222' 
ADCP,ioos:station:wmo:42887:1,2016-05-02T14:00:00Z,28.1910,-88.4960,48.2,6.1,160.0,99.0,'11111222,11111222,11144222' 
ADCP,ioos:station:wmo:42887:1,2016-05-02T14:20:00Z,28.1910,-88.4960,48.2,5.4,165.0,99.0,'11111222,11111222,11144222' 
ADCP,ioos:station:wmo:42887:1,2016-05-02T14:40:00Z,28.1910,-88.4960,48.2,4.8,158.0,99.0,'11111222,11111222,11144222' 
ADCP,ioos:station:wmo:42887:1,2016-05-02T15:00:00Z,28.1910,-88.4960,48.2,4.8,159.0,99.0,'11111222,11111222,11144222' 
ADCP,ioos:station:wmo:42887:1,2016-05-02T15:20:00Z,28.1910,-88.4960,48.2,4.0,150.0,99.0,'11111222,11111222,11144222' 
ADCP,ioos:station:wmo:42887:1,2016-05-02T15:40:00Z,28.1910,-88.4960,48.2,4.8,142.0,99.0,'11111222,11111222,11144222' 
ADCP,ioos:station:wmo:42887:1,2016-05-02T16:00:00Z,28.1910,-88.4960,48.2,3.8,150.0,99.0,'11111222,11111222,11144222' 
ADCP,ioos:station:wmo:42887:1,2016-05-02T16:20:00Z,28.1910,-88.4960,48.2,4.1,147.0,99.0,'11111222,11111222,11144222' 
ADCP,ioos:station:wmo:42887:1,2016-05-02T16:40:00Z,28.1910,-88.4960,48.2,3.9,137.0,99.0,'11111222,11111222,11144222' 
ADCP,ioos:station:wmo:42887:1,2016-05-02T17:00:00Z,28.1910,-88.4960,48.2,3.4,136.0,99.0,'11111222,11111222,11144222' 
ADCP,ioos:station:wmo:42887:1,2016-05-02T17:20:00Z,28.1910,-88.4960,48.2,2.4,132.0,99.0,'11111222,11111222,11144222' 
ADCP,ioos:station:wmo:42887:1,2016-05-02T17:40:00Z,28.1910,-88.4960,48.2,1.8,123.0,99.0,'11111222,11111222,11144222' 
ADCP,ioos:station:wmo:42887:1,2016-05-02T18:00:00Z,28.1910,-88.4960,48.2,2.1,103.0,99.0,'11111222,11111222,11144222' 
ADCP,ioos:station:wmo:42887:1,2016-05-02T18:20:00Z,28.1910,-88.4960,48.2,1.9,137.0,99.0,'11111222,11111222,11144222' 
ADCP,ioos:station:wmo:42887:1,2016-05-02T18:40:00Z,28.1910,-88.4960,48.2,2.8,136.0,99.0,'11111222,11111222,11144222' 
ADCP,ioos:station:wmo:42887:1,2016-05-02T19:00:00Z,28.1910,-88.4960,48.2,2.5,138.0,99.0,'11111222,11111222,11144222' 
ADCP,ioos:station:wmo:42887:1,2016-05-02T19:20:00Z,28.1910,-88.4960,48.2,1.5,145.0,99.0,'11111222,11111222,11144222' 
ADCP,ioos:station:wmo:42887:1,2016-05-02T19:40:00Z,28.1910,-88.4960,48.2,2.6,142.0,99.0,'11111222,11111222,11144222' 
ADCP,ioos:station:wmo:42887:1,2016-05-02T20:00:00Z,28.1910,-88.4960,48.2,2.8,124.0,99.0,'11111222,11111222,11144222' 
ADCP,ioos:station:wmo:42887:1,2016-05-02T20:20:00Z,28.1910,-88.4960,48.2,2.0,115.0,99.0,'11111222,11111222,11144222' 
ADCP,ioos:station:wmo:42887:1,2016-05-02T20:40:00Z,28.1910,-88.4960,48.2,1.6,111.0,99.0,'11111222,11111222,11144222' 
ADCP,ioos:station:wmo:42887:1,2016-05-02T21:00:00Z,28.1910,-88.4960,48.2,2.1,130.0,99.0,'11111222,11111222,11144222' 
ADCP,ioos:station:wmo:42887:1,2016-05-02T21:20:00Z,28.1910,-88.4960,48.2,1.1,123.0,99.0,'11111222,11111222,11144222' 
ADCP,ioos:station:wmo:42887:1,2016-05-02T21:40:00Z,28.1910,-88.4960,48.2,0.8,75.0,99.0,'11111222,11111222,11144222' 
ADCP,ioos:station:wmo:42887:1,2016-05-02T22:00:00Z,28.1910,-88.4960,48.2,1.4,90.0,99.0,'11111222,11111222,11144222' 
ADCP,ioos:station:wmo:42887:1,2016-05-02T22:20:00Z,28.1910,-88.4960,48.2,0.9,91.0,99.0,'11111222,11111222,11144222' 
ADCP,ioos:station:wmo:42887:1,2016-05-02T22:40:00Z,28.1910,-88.4960,48.2,2.2,122.0,99.0,'11111222,11111222,11144222' 
ADCP,ioos:station:wmo:42887:1,2016-05-02T23:00:00Z,28.1910,-88.4960,48.2,1.3,155.0,99.0,'11111222,11111222,11144222' 
ADCP,ioos:station:wmo:42887:1,2016-05-02T23:20:00Z,28.1910,-88.4960,48.2,0.6,198.0,99.0,'11111222,11111222,11144222' 
ADCP,ioos:station:wmo:42887:1,2016-05-02T23:40:00Z,28.1910,-88.4960,48.2,2.3,230.0,99.0,'11111222,11111222,11144222' 
ADCP,ioos:station:wmo:42887:1,2016-05-03T00:00:00Z,28.1910,-88.4960,48.2,2.0,225.0,99.0,'11111222,11111222,11144222' 
ADCP,ioos:station:wmo:42887:1,2016-05-03T00:20:00Z,28.1910,-88.4960,48.2,6.4,199.0,99.0,'11111222,11111222,11144222' 
ADCP,ioos:station:wmo:42887:1,2016-05-03T00:40:00Z,28.1910,-88.4960,48.2,7.8,192.0,99.0,'11111222,11111222,11144222' 
ADCP,ioos:station:wmo:42887:1,2016-05-03T01:00:00Z,28.1910,-88.4960,48.2,6.8,172.0,99.0,'11111222,11111222,11144222' 
ADCP,ioos:station:wmo:42887:1,2016-05-03T01:20:00Z,28.1910,-88.4960,48.2,7.2,170.0,99.0,'11111222,11111222,11144222' 
ADCP,ioos:station:wmo:42887:1,2016-05-03T01:40:00Z,28.1910,-88.4960,48.2,6.5,146.0,99.0,'11111222,11111222,11144222' 
ADCP,ioos:station:wmo:42887:1,2016-05-03T02:00:00Z,28.1910,-88.4960,48.2,5.2,146.0,99.0,'11111222,11111222,11144222' 
ADCP,ioos:station:wmo:42887:1,2016-05-03T02:20:00Z,28.1910,-88.4960,48.2,4.8,159.0,99.0,'11111222,11111222,11144222' 
ADCP,ioos:station:wmo:42887:1,2016-05-03T02:40:00Z,28.1910,-88.4960,48.2,4.4,157.0,99.0,'11111222,11111222,11144222' 
ADCP,ioos:station:wmo:42887:1,2016-05-03T03:00:00Z,28.1910,-88.4960,48.2,4.0,143.0,99.0,'11111222,11111222,11144222' 
ADCP,ioos:station:wmo:42887:1,2016-05-03T03:20:00Z,28.1910,-88.4960,48.2,2.1,132.0,99.0,'11111222,11111222,11144222' 
ADCP,ioos:station:wmo:42887:1,2016-05-03T03:40:00Z,28.1910,-88.4960,48.2,4.7,121.0,99.0,'11111222,11111222,11144222' 
ADCP,ioos:station:wmo:42887:1,2016-05-03T04:00:00Z,28.1910,-88.4960,48.2,2.9,111.0,99.0,'11111222,11111222,11144222' 
ADCP,ioos:station:wmo:42887:1,2016-05-03T04:20:00Z,28.1910,-88.4960,48.2,4.0,112.0,99.0,'11111222,11111222,11144222' 
ADCP,ioos:station:wmo:42887:1,2016-05-03T04:40:00Z,28.1910,-88.4960,48.2,3.9,131.0,99.0,'11111222,11111222,11144222' 
ADCP,ioos:station:wmo:42887:1,2016-05-03T05:00:00Z,28.1910,-88.4960,48.2,2.0,136.0,99.0,'11111222,11111222,11144222' 
ADCP,ioos:station:wmo:42887:1,2016-05-03T05:20:00Z,28.1910,-88.4960,48.2,2.6,142.0,99.0,'11111222,11111222,11144222' 
ADCP,ioos:station:wmo:42887:1,2016-05-03T05:40:00Z,28.1910,-88.4960,48.2,2.8,157.0,99.0,'11111222,11111222,11144222' 
ADCP,ioos:station:wmo:42887:1,2016-05-03T06:00:00Z,28.1910,-88.4960,48.2,1.5,124.0,99.0,'11111222,11111222,11144222' 
ADCP,ioos:station:wmo:42887:1,2016-05-03T06:20:00Z,28.1910,-88.4960,48.2,1.4,138.0,99.0,'11111222,11111222,11144222' 
ADCP,ioos:station:wmo:42887:1,2016-05-03T06:40:00Z,28.1910,-88.4960,48.2,1.8,137.0,99.0,'11111222,11111222,11144222' 
ADCP,ioos:station:wmo:42887:1,2016-05-03T07:00:00Z,28.1910,-88.4960,48.2,0.4,167.0,99.0,'11111222,11111222,11144222' 
ADCP,ioos:station:wmo:42887:1,2016-05-03T07:20:00Z,28.1910,-88.4960,48.2,1.5,181.0,99.0,'11111222,11111222,11144222' 
ADCP,ioos:station:wmo:42887:1,2016-05-03T07:40:00Z,28.1910,-88.4960,48.2,0.9,164.0,99.0,'11111222,11111222,11144222' 
ADCP,ioos:station:wmo:42887:1,2016-05-03T08:00:00Z,28.1910,-88.4960,48.2,0.9,143.0,99.0,'11111222,11111222,11144222' 
ADCP,ioos:station:wmo:42887:1,2016-05-03T08:20:00Z,28.1910,-88.4960,48.2,1.1,162.0,99.0,'11111222,11111222,11144222' 
ADCP,ioos:station:wmo:42887:1,2016-05-03T08:40:00Z,28.1910,-88.4960,48.2,0.6,145.0,99.0,'11111222,11111222,11144222' 
ADCP,ioos:station:wmo:42887:1,2016-05-03T09:00:00Z,28.1910,-88.4960,48.2,1.1,129.0,99.0,'11111222,11111222,11144222' 
ADCP,ioos:station:wmo:42887:1,2016-05-03T09:20:00Z,28.1910,-88.4960,48.2,2.1,138.0,99.0,'11111222,11111222,11144222' 
ADCP,ioos:station:wmo:42887:1,2016-05-03T09:40:00Z,28.1910,-88.4960,48.2,2.5,138.0,99.0,'11111222,11111222,11144222' 
ADCP,ioos:station:wmo:42887:1,2016-05-03T10:00:00Z,28.1910,-88.4960,48.2,2.3,138.0,99.0,'11111222,11111222,11144222' 
ADCP,ioos:station:wmo:42887:1,2016-05-03T10:20:00Z,28.1910,-88.4960,48.2,2.1,134.0,99.0,'11111222,11111222,11144222' 
ADCP,ioos:station:wmo:42887:1,2016-05-03T10:40:00Z,28.1910,-88.4960,48.2,2.0,136.0,99.0,'11111222,11111222,11144222' 
ADCP,ioos:station:wmo:42887:1,2016-05-03T11:00:00Z,28.1910,-88.4960,48.2,1.9,137.0,99.0,'11111222,11111222,11144222' 
ADCP,ioos:station:wmo:42887:1,2016-05-03T11:20:00Z,28.1910,-88.4960,48.2,2.3,138.0,99.0,'11111222,11111222,11144222' 
ADCP,ioos:station:wmo:42887:1,2016-05-03T11:40:00Z,28.1910,-88.4960,48.2,2.2,135.0,99.0,'11111222,11111222,11144222' 
ADCP,ioos:station:wmo:42887:1,2016-05-03T12:00:00Z,28.1910,-88.4960,48.2,2.5,143.0,99.0,'11111222,11111222,11144222' 
ADCP,ioos:station:wmo:42887:1,2016-05-03T12:20:00Z,28.1910,-88.4960,48.2,1.7,168.0,99.0,'11111222,11111222,11144222' 
ADCP,ioos:station:wmo:42887:1,2016-05-03T12:40:00Z,28.1910,-88.4960,48.2,2.5,155.0,99.0,'11111222,11111222,11144222' 
ADCP,ioos:station:wmo:42887:1,2016-05-03T13:00:00Z,28.1910,-88.4960,48.2,3.1,160.0,99.0,'11111222,11111222,11144222' 
ADCP,ioos:station:wmo:42887:1,2016-05-03T13:20:00Z,28.1910,-88.4960,48.2,3.7,167.0,99.0,'11111222,11111222,11144222' 
ADCP,ioos:station:wmo:42887:1,2016-05-03T13:40:00Z,28.1910,-88.4960,48.2,3.0,158.0,99.0,'11111222,11111222,11144222' 
ADCP,ioos:station:wmo:42887:1,2016-05-03T14:00:00Z,28.1910,-88.4960,48.2,2.5,148.0,99.0,'11111222,11111222,11144222' 
ADCP,ioos:station:wmo:42887:1,2016-05-03T14:20:00Z,28.1910,-88.4960,48.2,2.5,147.0,99.0,'11111222,11111222,11144222' 
ADCP,ioos:station:wmo:42887:1,2016-05-03T14:40:00Z,28.1910,-88.4960,48.2,3.2,167.0,99.0,'11111222,11111222,11144222' 
ADCP,ioos:station:wmo:42887:1,2016-05-03T15:00:00Z,28.1910,-88.4960,48.2,3.2,184.0,99.0,'11111222,11111222,11144222' 
ADCP,ioos:station:wmo:42887:1,2016-05-03T15:20:00Z,28.1910,-88.4960,48.2,2.8,179.0,99.0,'11111222,11111222,11144222' 
ADCP,ioos:station:wmo:42887:1,2016-05-03T15:40:00Z,28.1910,-88.4960,48.2,2.4,167.0,99.0,'11111222,11111222,11144222' 
ADCP,ioos:station:wmo:42887:1,2016-05-03T16:00:00Z,28.1910,-88.4960,48.2,3.6,176.0,99.0,'11111222,11111222,11144222' 
ADCP,ioos:station:wmo:42887:1,2016-05-03T16:20:00Z,28.1910,-88.4960,48.2,2.8,179.0,99.0,'11111222,11111222,11144222' 
ADCP,ioos:station:wmo:42887:1,2016-05-03T16:40:00Z,28.1910,-88.4960,48.2,2.9,187.0,99.0,'11111222,11111222,11144222' 
ADCP,ioos:station:wmo:42887:1,2016-05-03T17:00:00Z,28.1910,-88.4960,48.2,3.2,210.0,99.0,'11111222,11111222,11144222' 
ADCP,ioos:station:wmo:42887:1,2016-05-03T17:20:00Z,28.1910,-88.4960,48.2,2.6,214.0,99.0,'11111222,11111222,11144222' 
ADCP,ioos:station:wmo:42887:1,2016-05-03T17:40:00Z,28.1910,-88.4960,48.2,3.1,224.0,99.0,'11111222,11111222,11144222' 
ADCP,ioos:station:wmo:42887:1,2016-05-03T18:00:00Z,28.1910,-88.4960,48.2,7.0,217.0,99.0,'11111222,11111222,11144222' 
ADCP,ioos:station:wmo:42887:1,2016-05-03T18:20:00Z,28.1910,-88.4960,48.2,6.8,197.0,99.0,'11111222,11111222,11144222' 
ADCP,ioos:station:wmo:42887:1,2016-05-03T18:40:00Z,28.1910,-88.4960,48.2,6.2,197.0,99.0,'11111222,11111222,11144222' 
ADCP,ioos:station:wmo:42887:1,2016-05-03T19:00:00Z,28.1910,-88.4960,48.2,6.5,198.0,99.0,'11111222,11111222,11144222' 